TimeHST,TemperatureF,Dew PointF,Humidity,Sea Level PressureIn,VisibilityMPH,Wind Direction,Wind SpeedMPH,Gust SpeedMPH,PrecipitationIn,Events,Conditions,WindDirDegrees,DateUTC
12:56 AM,68.9,66.9,93,29.97,10.0,ENE,8.1,-,N/A,,Clear,60,2013-11-06 10:56:00
1:56 AM,68.9,66.9,93,29.96,10.0,East,5.8,-,N/A,,Clear,90,2013-11-06 11:56:00
2:56 AM,66.9,64.9,93,29.96,10.0,East,6.9,-,N/A,,Clear,80,2013-11-06 12:56:00
3:56 AM,68.0,66.9,96,29.95,10.0,ENE,9.2,-,N/A,,Clear,60,2013-11-06 13:56:00
4:56 AM,68.9,66.9,93,29.95,10.0,NE,9.2,-,N/A,,Clear,50,2013-11-06 14:56:00
5:56 AM,68.0,66.9,96,29.96,10.0,ENE,9.2,-,N/A,,Clear,60,2013-11-06 15:56:00
6:56 AM,68.9,64.9,87,29.97,10.0,NE,10.4,-,N/A,,Clear,50,2013-11-06 16:56:00
7:56 AM,73.9,65.8,76,29.98,10.0,ENE,8.1,-,N/A,,Clear,70,2013-11-06 17:56:00
8:56 AM,77.9,65.8,66,29.98,10.0,NE,11.5,-,N/A,,Clear,40,2013-11-06 18:56:00
9:56 AM,81.0,65.8,60,29.97,10.0,South,5.8,-,N/A,,Mostly Cloudy,190,2013-11-06 19:56:00
10:19 AM,82.4,66.2,58,30.04,10.0,SSW,9.2,-,N/A,,Scattered Clouds,210,2013-11-06 20:19:00
10:56 AM,84.2,66.2,55,30.02,10.0,SW,8.1,-,N/A,,Scattered Clouds,230,2013-11-06 20:56:00
11:56 AM,84.9,66.9,55,29.93,10.0,WSW,8.1,-,N/A,,Partly Cloudy,240,2013-11-06 21:56:00
12:22 PM,82.4,66.2,58,30.00,10.0,West,6.9,-,N/A,,Mostly Cloudy,270,2013-11-06 22:22:00
12:33 PM,80.6,66.2,61,29.99,10.0,West,6.9,-,N/A,,Scattered Clouds,280,2013-11-06 22:33:00
12:45 PM,80.6,66.2,61,29.99,10.0,WNW,3.5,-,N/A,,Mostly Cloudy,290,2013-11-06 22:45:00
12:56 PM,79.0,65.8,64,29.92,10.0,Calm,Calm,-,N/A,,Mostly Cloudy,0,2013-11-06 22:56:00
1:56 PM,82.4,66.2,58,29.96,10.0,Variable,4.6,-,N/A,,Scattered Clouds,0,2013-11-06 23:56:00
2:34 PM,80.6,66.2,61,29.95,10.0,SW,3.5,-,N/A,,Mostly Cloudy,220,2013-11-07 00:34:00
2:56 PM,79.9,65.8,62,29.89,10.0,West,6.9,-,N/A,,Overcast,260,2013-11-07 00:56:00
3:35 PM,80.6,66.2,61,29.95,10.0,West,6.9,-,N/A,,Scattered Clouds,270,2013-11-07 01:35:00
3:56 PM,77.9,65.8,66,29.89,10.0,Variable,5.8,-,N/A,,Scattered Clouds,0,2013-11-07 01:56:00
4:03 PM,78.8,66.2,65,29.95,10.0,NW,4.6,-,N/A,,Mostly Cloudy,310,2013-11-07 02:03:00
4:56 PM,75.9,64.9,69,29.89,10.0,NNE,9.2,-,N/A,,Partly Cloudy,30,2013-11-07 02:56:00
5:56 PM,72.0,64.9,78,29.91,10.0,ENE,8.1,-,N/A,,Clear,60,2013-11-07 03:56:00
6:56 PM,68.9,63.0,81,29.92,10.0,East,5.8,-,N/A,,Clear,80,2013-11-07 04:56:00
7:56 PM,68.9,63.9,84,29.94,10.0,ENE,3.5,-,N/A,,Clear,70,2013-11-07 05:56:00
8:56 PM,66.9,63.9,90,29.96,10.0,NE,3.5,-,N/A,,Clear,50,2013-11-07 06:56:00
9:56 PM,64.9,63.0,93,29.96,10.0,ENE,3.5,-,N/A,,Clear,70,2013-11-07 07:56:00
10:56 PM,65.8,64.9,97,29.95,10.0,ENE,3.5,-,N/A,,Clear,70,2013-11-07 08:56:00
11:56 PM,66.9,65.8,96,29.94,10.0,ENE,4.6,-,N/A,,Partly Cloudy,70,2013-11-07 09:56:00